When you browse on this site, cookies collect data to enhance your experience and personalize the content and advertising you see.
Visit our Privacy Policy to learn more. By continuing to use the site, you agree to this use of cookies and data.
  • In Austria
  • List of Countries
  • For 7 days
  • Water Temperature
  • Weather Map
  • News
  • Weather Widgets
  • user-avatar
    Login

    Hourly Weather Idelbaevo

    Today, 30 May, Saturday

    Time Temperature Precipitation Wind Pressure Humidity
    00:00 +18°C° 0 mm 7 mps 739 mmHg 71%
    01:00 +17°C° 0 mm 7 mps 739 mmHg 71%
    02:00 +17°C° 0 mm 7 mps 739 mmHg 69%
    03:00 +16°C° 0 mm 7 mps 739 mmHg 68%
    04:00 +16°C° 0 mm 8 mps 739 mmHg 62%
    05:00 +17°C° 0 mm 8 mps 739 mmHg 63%
    06:00 +17°C° 0 mm 8 mps 739 mmHg 63%
    07:00 +18°C° 0 mm 8 mps 739 mmHg 64%
    08:00 +20°C° 0 mm 8 mps 739 mmHg 61%
    09:00 +22°C° 0 mm 8 mps 739 mmHg 58%
    10:00 +23°C° 0 mm 7 mps 738 mmHg 55%
    11:00 +26°C° 0 mm 7 mps 738 mmHg 52%
    12:00 +27°C° 0 mm 6 mps 738 mmHg 50%
    13:00 +28°C° 0 mm 5 mps 738 mmHg 48%
    14:00 +29°C° 0 mm 5 mps 738 mmHg 47%
    15:00 +29°C° 0 mm 4 mps 738 mmHg 46%
    16:00 +30°C° 0 mm 4 mps 737 mmHg 46%
    17:00 +29°C° 0 mm 3 mps 737 mmHg 50%
    18:00 +28°C° 0 mm 2 mps 737 mmHg 55%
    19:00 +27°C° 0 mm 2 mps 737 mmHg 59%
    20:00 +25°C° 0 mm 2 mps 737 mmHg 62%
    21:00 +22°C° 0 mm 3 mps 737 mmHg 64%
    22:00 +21°C° 0 mm 4 mps 737 mmHg 67%
    23:00 +20°C° 0 mm 4 mps 736 mmHg 67%

    Tomorrow, 31 May, Sunday

    Time Temperature Precipitation Wind Pressure Humidity
    00:00 +20°C° 0 mm 4 mps 736 mmHg 68%
    01:00 +20°C° 0 mm 4 mps 735 mmHg 68%
    02:00 +19°C° 0 mm 4 mps 735 mmHg 69%
    03:00 +19°C° 0 mm 3 mps 735 mmHg 70%
    04:00 +19°C° 0 mm 2 mps 735 mmHg 70%
    05:00 +20°C° 0 mm 2 mps 734 mmHg 69%
    06:00 +21°C° 0 mm 2 mps 734 mmHg 68%
    07:00 +24°C° 0 mm 2 mps 734 mmHg 66%
    08:00 +25°C° 0 mm 4 mps 734 mmHg 61%
    09:00 +27°C° 0 mm 5 mps 734 mmHg 55%
    10:00 +29°C° 0 mm 6 mps 734 mmHg 49%
    11:00 +29°C° 0 mm 7 mps 734 mmHg 48%
    12:00 +30°C° 0 mm 7 mps 734 mmHg 46%
    13:00 +30°C° 0 mm 7 mps 734 mmHg 45%
    14:00 +30°C° 0 mm 7 mps 734 mmHg 47%
    15:00 +29°C° 0 mm 7 mps 734 mmHg 49%
    16:00 +29°C° 0 mm 7 mps 734 mmHg 52%
    17:00 +27°C° 0 mm 6 mps 734 mmHg 56%
    18:00 +26°C° 0 mm 6 mps 735 mmHg 61%
    19:00 +23°C° 0 mm 5 mps 735 mmHg 66%
    20:00 +22°C° 0 mm 5 mps 735 mmHg 66%
    21:00 +20°C° 0 mm 4 mps 735 mmHg 66%
    22:00 +19°C° 0 mm 4 mps 735 mmHg 66%
    23:00 +18°C° 0 mm 4 mps 735 mmHg 69%

    Day after tomorrow, 1 June, Monday

    Time Temperature Precipitation Wind Pressure Humidity
    00:00 +17°C° 0 mm 3 mps 735 mmHg 72%
    01:00 +16°C° 0 mm 3 mps 736 mmHg 75%
    02:00 +16°C° 0 mm 3 mps 736 mmHg 78%
    03:00 +15°C° 0 mm 2 mps 736 mmHg 81%
    04:00 +14°C° 0 mm 2 mps 736 mmHg 84%
    05:00 +15°C° 0 mm 2 mps 736 mmHg 80%
    06:00 +17°C° 0 mm 2 mps 736 mmHg 76%
    07:00 +18°C° 0 mm 3 mps 737 mmHg 72%
    08:00 +19°C° 0 mm 3 mps 737 mmHg 66%
    09:00 +21°C° 0 mm 4 mps 737 mmHg 61%
    10:00 +22°C° 0 mm 4 mps 737 mmHg 56%
    11:00 +23°C° 0 mm 4 mps 737 mmHg 53%
    12:00 +23°C° 0 mm 4 mps 737 mmHg 50%
    13:00 +25°C° 0 mm 4 mps 737 mmHg 47%
    14:00 +25°C° 0 mm 4 mps 737 mmHg 46%
    15:00 +25°C° 0 mm 4 mps 737 mmHg 45%
    16:00 +25°C° 0 mm 4 mps 737 mmHg 44%
    17:00 +24°C° 0 mm 3 mps 737 mmHg 50%
    18:00 +24°C° 0 mm 2 mps 737 mmHg 55%
    19:00 +23°C° 0 mm 2 mps 737 mmHg 61%
    20:00 +21°C° 0 mm 1 mps 737 mmHg 65%
    21:00 +19°C° 0 mm 1 mps 737 mmHg 69%
    22:00 +16°C° 0 mm 0 mps 737 mmHg 72%
    23:00 +16°C° 0 mm 0 mps 737 mmHg 72%

    2 June, Tuesday

    Time Temperature Precipitation Wind Pressure Humidity
    00:00 +15°C° 0 mm 0 mps 737 mmHg 72%
    01:00 +15°C° 0 mm 0 mps 737 mmHg 72%
    02:00 +15°C° 0 mm 0 mps 737 mmHg 74%
    03:00 +14°C° 0 mm 0 mps 737 mmHg 76%
    04:00 +14°C° 0 mm 0 mps 738 mmHg 78%
    05:00 +15°C° 0 mm 0 mps 738 mmHg 72%
    06:00 +17°C° 0 mm 0 mps 738 mmHg 67%
    07:00 +19°C° 0 mm 0 mps 738 mmHg 61%
    08:00 +20°C° 0 mm 0 mps 738 mmHg 56%
    09:00 +24°C° 0 mm 1 mps 738 mmHg 50%
    10:00 +25°C° 0 mm 1 mps 738 mmHg 45%
    11:00 +26°C° 0 mm 1 mps 738 mmHg 43%
    12:00 +26°C° 0 mm 2 mps 738 mmHg 41%
    13:00 +27°C° 0 mm 2 mps 738 mmHg 39%
    14:00 +27°C° 0 mm 2 mps 738 mmHg 39%
    15:00 +27°C° 0 mm 2 mps 738 mmHg 39%
    16:00 +27°C° 0 mm 2 mps 737 mmHg 40%
    17:00 +26°C° 0 mm 2 mps 737 mmHg 47%
    18:00 +24°C° 0 mm 3 mps 737 mmHg 53%
    19:00 +22°C° 0 mm 3 mps 737 mmHg 60%
    20:00 +21°C° 0 mm 3 mps 737 mmHg 61%
    21:00 +19°C° 0 mm 3 mps 737 mmHg 62%
    22:00 +18°C° 0 mm 2 mps 737 mmHg 64%
    23:00 +18°C° 0 mm 3 mps 737 mmHg 65%

    3 June, Wednesday

    Time Temperature Precipitation Wind Pressure Humidity
    00:00 +17°C° 0 mm 3 mps 737 mmHg 67%
    01:00 +17°C° 0 mm 3 mps 737 mmHg 68%
    02:00 +17°C° 0 mm 3 mps 737 mmHg 70%
    03:00 +17°C° 0 mm 4 mps 737 mmHg 72%
    04:00 +15°C° 0 mm 4 mps 737 mmHg 74%
    05:00 +16°C° 0 mm 5 mps 737 mmHg 73%
    06:00 +17°C° 0 mm 5 mps 737 mmHg 73%
    07:00 +19°C° 0 mm 6 mps 737 mmHg 72%
    08:00 +20°C° 0 mm 6 mps 737 mmHg 68%
    09:00 +21°C° 0 mm 6 mps 737 mmHg 64%
    10:00 +23°C° 0 mm 6 mps 737 mmHg 59%
    11:00 +25°C° 0 mm 5 mps 737 mmHg 54%
    12:00 +26°C° 0 mm 4 mps 737 mmHg 50%
    13:00 +28°C° 0 mm 4 mps 737 mmHg 45%
    14:00 +28°C° 0 mm 3 mps 736 mmHg 43%
    15:00 +28°C° 0 mm 3 mps 736 mmHg 41%
    16:00 +29°C° 0 mm 3 mps 736 mmHg 40%
    17:00 +27°C° 0 mm 3 mps 736 mmHg 46%
    18:00 +26°C° 0 mm 4 mps 736 mmHg 52%
    19:00 +25°C° 0 mm 5 mps 736 mmHg 58%
    20:00 +23°C° 0 mm 6 mps 736 mmHg 58%
    21:00 +22°C° 0 mm 7 mps 736 mmHg 58%
    22:00 +21°C° 0 mm 9 mps 736 mmHg 58%
    23:00 +20°C° 0 mm 8 mps 736 mmHg 59%

    4 June, Thursday

    Time Temperature Precipitation Wind Pressure Humidity
    00:00 +20°C° 0 mm 8 mps 736 mmHg 60%
    01:00 +20°C° 0 mm 8 mps 736 mmHg 61%
    02:00 +18°C° 0 mm 7 mps 736 mmHg 66%
    03:00 +17°C° 0 mm 6 mps 736 mmHg 71%
    04:00 +16°C° 0 mm 5 mps 736 mmHg 75%
    05:00 +17°C° 0 mm 5 mps 736 mmHg 74%
    06:00 +17°C° 0 mm 6 mps 736 mmHg 72%
    07:00 +19°C° 0 mm 6 mps 736 mmHg 70%
    08:00 +20°C° 0 mm 6 mps 736 mmHg 67%
    09:00 +21°C° 0 mm 7 mps 736 mmHg 63%
    10:00 +22°C° 0 mm 7 mps 736 mmHg 60%
    11:00 +23°C° 0.1 mm 6 mps 736 mmHg 59%
    12:00 +23°C° 0.1 mm 6 mps 736 mmHg 58%
    13:00 +23°C° 0.1 mm 6 mps 736 mmHg 58%
    14:00 +24°C° 0 mm 6 mps 735 mmHg 56%
    15:00 +24°C° 0 mm 6 mps 735 mmHg 54%
    16:00 +26°C° 0 mm 7 mps 735 mmHg 52%
    17:00 +24°C° 0 mm 7 mps 735 mmHg 55%
    18:00 +23°C° 0 mm 7 mps 735 mmHg 57%
    19:00 +22°C° 0 mm 8 mps 735 mmHg 59%
    20:00 +21°C° 0 mm 8 mps 735 mmHg 57%
    21:00 +20°C° 0 mm 8 mps 735 mmHg 56%
    22:00 +18°C° 0 mm 9 mps 735 mmHg 54%
    23:00 +17°C° 0 mm 9 mps 735 mmHg 53%
    Show more